{"data":{"norad_id":55385,"epoch":"2026-05-25T00:18:56.452032Z","epoch_age_seconds":73576,"freshness":"FRESH","line1":"1 55385U 23013BG  26145.01315338 -.00008087  00000+0 -28440-3 0  9992","line2":"2 55385  43.0040 247.2609 0002608 265.9411  94.1143 15.27605775183170","mean_motion":15.27605775,"eccentricity":0.0002608,"inclination_deg":43.004,"raan_deg":247.2609,"arg_perigee_deg":265.9411,"mean_anomaly_deg":94.1143,"bstar":-0.0002844,"rev_number":18317,"period_min":94.265158168835,"perigee_km":481.18254029666,"apogee_km":484.76129470803,"semimajor_km":6861.1089175023,"source":"CELESTRAK","updated_at":"2026-05-25T13:38:17.771342Z"}}